Simultaneous Nadir Overpasses (SNOs) Predictions

Prediction of SNOs over PacNW region [( 10.00, 139.50) to ( 22.70, 165.60)] between AQUA and NPP Satellites:

Table of predicted SNOs over PacNW region for the next 30.0 days since TLE Epoch: 7/23/2022
Index Date (AQUA) Time (AQUA) AQUA Lat,Lon Date (NPP) Time (NPP) NPP Lat,Lon Distance(km) Time Diff (sec)
1 07/25/2022 02:38:04 13.66, 163.32 07/25/2022 02:40:33 12.76, 159.22 455.20 149
2 07/27/2022 16:16:06 20.64, 143.95 07/27/2022 16:15:32 21.27, 140.87 327.30 34
3 08/04/2022 15:24:16 22.58, 157.27 08/04/2022 15:24:18 23.31, 154.05 340.02 2
4 08/12/2022 16:11:47 22.60, 145.43 08/12/2022 16:15:06 23.50, 141.38 426.38 199
5 08/15/2022 02:54:07 22.66, 157.97 08/15/2022 02:50:38 25.06, 154.59 434.44 209
